KK5DC Weather Reports


Display with metric or nautical units.
time (UTC)temp
F
wind
direction
speed
MPH
gust
MPH
rain 1hr
in
rain 24hr
in
rain mn
in
humidity
%
barometer
mb
20260510153507 75 111 1.0 4.0 0.00 0.00 0.00 86 1015.9
20260510153502 75 157 3.0 7.0 0.00 0.00 0.00 86 1015.3
20260510153024 75 225 1.0 4.0 0.00 0.00 0.00 86 1015.9
20260510152508 75 100 1.0 4.0 0.00 0.00 0.00 86 1015.9
20260510152007 75 134 3.0 7.0 0.00 0.00 0.00 87 1015.2
20260510151531 75 159 1.0 6.0 0.00 0.00 0.00 86 1015.1
20260510151522 75 146 0.0 4.0 0.00 0.00 0.00 86 1015.8
20260510151008 75 211 0.0 4.0 0.00 0.00 0.00 86 1015.8
20260510151004 75 156 2.0 5.0 0.00 0.00 0.00 86 1015.1
20260510150507 75 60 1.0 4.0 0.00 0.00 0.00 86 1015.1
20260510150024 74 138 1.0 3.0 0.00 0.00 0.00 86 1015.2
20260510150022 74 151 1.0 4.0 0.00 0.00 0.00 86 1015.9
20260510145512 74 190 1.0 3.0 0.00 0.00 0.00 86 1015.9
20260510145504 74 79 1.0 4.0 0.00 0.00 0.00 86 1015.1
20260510145005 75 57 2.0 4.0 0.00 0.00 0.00 86 1015.2
20260510145003 75 56 0.0 4.0 0.00 0.00 0.00 86 1015.9
20260510144525 74 340 1.0 4.0 0.00 0.00 0.00 87 1015.8
20260510144510 74 22 1.0 4.0 0.00 0.00 0.00 87 1015.0
20260510144010 74 114 1.0 4.0 0.00 0.00 0.00 86 1015.8
20260510144004 74 31 1.0 4.0 0.00 0.00 0.00 86 1014.9
20260510143510 74 104 0.0 4.0 0.00 0.00 0.00 87 1015.7
20260510143502 74 151 2.0 5.0 0.00 0.00 0.00 87 1014.9
20260510143020 74 87 2.0 7.0 0.00 0.00 0.00 86 1014.9
20260510143016 74 180 1.0 5.0 0.00 0.00 0.00 86 1015.7
20260510142510 74 148 2.0 7.0 0.00 0.00 0.00 87 1014.8
20260510142508 74 242 0.0 6.0 0.00 0.00 0.00 87 1015.6
20260510142010 74 111 1.0 6.0 0.00 0.00 0.00 87 1015.5
20260510141516 73 154 2.0 7.0 0.00 0.00 0.00 87 1014.7
20260510141514 73 109 1.0 3.0 0.00 0.00 0.00 87 1015.5
20260510141011 73 193 1.0 3.0 0.00 0.00 0.00 87 1015.5
20260510141009 73 155 2.0 7.0 0.00 0.00 0.00 87 1014.7
20260510140512 73 96 1.0 7.0 0.00 0.00 0.00 87 1015.4
20260510140507 73 90 1.0 7.0 0.00 0.00 0.00 87 1014.6
20260510140027 73 157 0.0 7.0 0.00 0.00 0.00 86 1015.4
20260510140010 73 111 1.0 7.0 0.00 0.00 0.00 86 1014.5
20260510135507 73 158 2.0 6.0 0.00 0.00 0.00 88 1014.4
20260510135007 72 159 0.0 6.0 0.00 0.00 0.00 87 1015.2
20260510134526 72 163 1.0 6.0 0.00 0.00 0.00 87 1014.3
20260510134524 72 127 2.0 6.0 0.00 0.00 0.00 87 1015.1
20260510134006 71 115 1.0 6.0 0.00 0.00 0.00 88 1015.1
20260510134003 71 71 1.0 6.0 0.00 0.00 0.00 88 1014.2
20260510133507 71 125 1.0 3.0 0.00 0.00 0.00 89 1014.9
20260510133503 71 152 2.0 6.0 0.00 0.00 0.00 89 1014.0
20260510133027 71 114 0.0 4.0 0.00 0.00 0.00 90 1014.7
20260510133011 71 148 1.0 6.0 0.00 0.00 0.00 90 1014.0
20260510132511 70 192 0.0 4.0 0.00 0.00 0.00 90 1014.7
20260510132506 70 155 2.0 6.0 0.00 0.00 0.00 90 1014.0
20260510132007 70 156 1.0 4.0 0.00 0.00 0.00 91 1014.6
20260510131518 69 149 1.0 3.0 0.00 0.00 0.00 92 1013.7
20260510131007 69 119 0.0 3.0 0.00 0.00 0.00 92 1014.4
20260510131004 69 74 1.0 3.0 0.00 0.00 0.00 92 1013.7
20260510130505 68 138 0.0 2.0 0.00 0.00 0.00 93 1014.4
20260510130038 67 82 0.0 2.0 0.00 0.00 0.00 93 1013.6
20260510130027 67 136 0.0 2.0 0.00 0.00 0.00 93 1014.4
20260510125507 67 97 0.0 2.0 0.00 0.00 0.00 93 1013.6
20260510125006 67 97 0.0 2.0 0.00 0.00 0.00 93 1013.5
20260510124521 66 189 0.0 2.0 0.00 0.00 0.00 93 1013.4
20260510124518 66 126 0.0 2.0 0.00 0.00 0.00 93 1014.1
20260510124011 66 186 0.0 2.0 0.00 0.00 0.00 93 1014.0
20260510124009 66 189 0.0 2.0 0.00 0.00 0.00 93 1013.3
20260510123511 66 189 0.0 2.0 0.00 0.00 0.00 93 1013.2
20260510123016 66 189 0.0 2.0 0.00 0.00 0.00 93 1013.0
20260510122509 65 186 0.0 2.0 0.00 0.00 0.00 93 1013.6
20260510122505 65 189 0.0 2.0 0.00 0.00 0.00 93 1012.9
20260510122011 65 186 0.0 0.0 0.00 0.00 0.00 93 1013.5
20260510122008 65 189 0.0 2.0 0.00 0.00 0.00 93 1012.8
20260510121527 65 186 0.0 0.0 0.00 0.00 0.00 93 1013.6
20260510121512 65 189 0.0 2.0 0.00 0.00 0.00 93 1012.9
20260510121008 65 186 0.0 0.0 0.00 0.00 0.00 93 1013.6
20260510121005 65 189 0.0 2.0 0.00 0.00 0.00 93 1012.9
20260510120508 64 186 0.0 0.0 0.00 0.00 0.00 93 1013.6
20260510120505 64 189 0.0 2.0 0.00 0.00 0.00 93 1012.8
20260510120019 64 186 0.0 0.0 0.00 0.00 0.00 93 1013.5
20260510120014 64 189 0.0 0.0 0.00 0.00 0.00 93 1012.8
20260510115507 64 186 0.0 0.0 0.00 0.00 0.00 93 1013.6
20260510115502 64 189 0.0 0.0 0.00 0.00 0.00 93 1012.8
20260510115008 64 186 0.0 0.0 0.00 0.00 0.00 92 1013.5
20260510115002 64 189 0.0 0.0 0.00 0.00 0.00 92 1012.7
20260510114523 65 186 0.0 0.0 0.00 0.00 0.00 92 1013.3
20260510114513 65 189 0.0 2.0 0.00 0.00 0.00 92 1012.5
20260510114010 65 186 0.0 0.0 0.00 0.00 0.00 92 1013.3
20260510114003 65 189 0.0 2.0 0.00 0.00 0.00 92 1012.4
20260510113506 65 186 0.0 0.0 0.00 0.00 0.00 92 1013.3
20260510113502 65 189 0.0 1.0 0.00 0.00 0.00 92 1012.5
20260510113030 65 186 0.0 0.0 0.00 0.00 0.00 92 1013.1
20260510113005 65 189 0.0 2.0 0.00 0.00 0.00 92 1012.3
20260510112512 65 186 0.0 0.0 0.00 0.00 0.00 92 1013.0
20260510112504 65 189 0.0 2.0 0.00 0.00 0.00 92 1012.2
20260510112007 65 186 0.0 0.0 0.00 0.00 0.00 91 1013.0
20260510112005 65 189 0.0 1.0 0.00 0.00 0.00 91 1012.3
20260510111503 66 189 0.0 2.0 0.00 0.00 0.00 91 1012.4
20260510111004 66 189 0.0 2.0 0.00 0.00 0.00 91 1012.2
20260510111002 66 186 0.0 0.0 0.00 0.00 0.00 91 1012.9
20260510110510 66 186 0.0 0.0 0.00 0.00 0.00 91 1012.8
20260510110507 66 189 0.0 1.0 0.00 0.00 0.00 91 1012.1
20260510110021 67 186 0.0 2.0 0.00 0.00 0.00 91 1012.7
20260510110005 67 189 0.0 2.0 0.00 0.00 0.00 91 1011.9
20260510105504 67 186 0.0 2.0 0.00 0.00 0.00 91 1012.5
20260510105003 67 186 0.0 2.0 0.00 0.00 0.00 90 1012.5
20260510104507 67 186 0.0 2.0 0.00 0.00 0.00 90 1012.3
20260510104504 67 189 0.0 2.0 0.00 0.00 0.00 90 1011.6
20260510104003 67 138 1.0 4.0 0.00 0.00 0.00 90 1011.5
20260510103502 68 230 0.0 2.0 0.00 0.00 0.00 90 1012.1
20260510103008 68 219 0.0 2.0 0.00 0.00 0.00 90 1012.0
20260510102504 68 202 0.0 2.0 0.00 0.00 0.00 90 1012.1
20260510102502 68 167 2.0 5.0 0.00 0.00 0.00 90 1011.4
20260510102007 68 153 2.0 5.0 0.00 0.00 0.00 89 1011.4
20260510102003 68 180 0.0 2.0 0.00 0.00 0.00 89 1012.1
20260510101514 68 174 2.0 4.0 0.00 0.00 0.00 89 1011.3
20260510101509 68 164 0.0 2.0 0.00 0.00 0.00 89 1012.0
20260510101005 68 162 2.0 4.0 0.00 0.00 0.00 89 1011.3
20260510101003 68 146 0.0 2.0 0.00 0.00 0.00 89 1012.0
20260510100511 68 162 0.0 2.0 0.00 0.00 0.00 89 1012.0
20260510100503 68 177 2.0 4.0 0.00 0.00 0.00 89 1011.3
20260510100008 68 155 2.0 7.0 0.00 0.00 0.00 89 1011.3
20260510095505 68 172 1.0 6.0 0.00 0.00 0.00 89 1011.3
20260510095503 68 189 0.0 2.0 0.00 0.00 0.00 89 1012.0
20260510095013 68 163 3.0 6.0 0.00 0.00 0.00 89 1011.2
20260510095009 68 187 0.0 3.0 0.00 0.00 0.00 89 1011.9
20260510094506 68 199 0.0 3.0 0.00 0.00 0.00 89 1011.9
20260510094003 68 209 0.0 2.0 0.00 0.00 0.00 89 1011.9
20260510093506 68 188 0.0 2.0 0.00 0.00 0.00 89 1011.9
20260510093502 68 155 2.0 8.0 0.00 0.00 0.00 89 1011.3
20260510093004 68 184 0.0 2.0 0.00 0.00 0.00 89 1011.8
20260510092504 68 164 2.0 6.0 0.00 0.00 0.00 89 1011.2
20260510092004 68 144 2.0 5.0 0.00 0.00 0.00 89 1011.4
20260510092002 68 221 0.0 2.0 0.00 0.00 0.00 89 1012.1
20260510091515 68 196 0.0 2.0 0.00 0.00 0.00 89 1012.1
20260510091508 68 183 3.0 5.0 0.00 0.00 0.00 89 1011.4
20260510091005 68 169 0.0 2.0 0.00 0.00 0.00 88 1012.0
20260510091001 68 157 2.0 5.0 0.00 0.00 0.00 88 1011.5
20260510090504 68 165 0.0 2.0 0.00 0.00 0.00 88 1012.0
20260510090016 68 176 0.0 2.0 0.00 0.00 0.00 88 1012.0
20260510090012 68 179 1.0 4.0 0.00 0.00 0.00 88 1011.3
20260510085504 68 194 0.0 3.0 0.00 0.00 0.00 88 1012.0
20260510085003 69 183 2.0 3.0 0.00 0.00 0.00 88 1011.4
20260510084516 69 166 0.0 2.0 0.00 0.00 0.00 88 1012.1
20260510084010 69 154 1.0 3.0 0.00 0.00 0.00 87 1011.4
20260510083505 69 170 0.0 2.0 0.00 0.00 0.00 87 1012.2
20260510083503 69 147 1.0 3.0 0.00 0.00 0.00 87 1011.5
20260510083010 69 170 0.0 2.0 0.00 0.00 0.00 87 1012.3
20260510083002 69 165 1.0 3.0 0.00 0.00 0.00 87 1011.6
20260510082502 69 165 0.0 5.0 0.00 0.00 0.00 86 1011.6
20260510082003 69 176 0.0 2.0 0.00 0.00 0.00 86 1012.3
20260510081522 69 176 0.0 2.0 0.00 0.00 0.00 86 1012.3
20260510081509 69 168 2.0 4.0 0.00 0.00 0.00 86 1011.6
20260510081003 70 169 0.0 2.0 0.00 0.00 0.00 85 1012.4
20260510080503 70 179 0.0 2.0 0.00 0.00 0.00 85 1012.4
20260510080011 70 184 1.0 2.0 0.00 0.00 0.00 85 1012.4
20260510080004 70 147 2.0 4.0 0.00 0.00 0.00 85 1011.7
20260510075503 70 138 1.0 3.0 0.00 0.00 0.00 85 1011.7
20260510075006 70 155 0.0 2.0 0.00 0.00 0.00 85 1012.4
20260510075004 70 166 1.0 4.0 0.00 0.00 0.00 85 1011.7
20260510074518 70 142 2.0 4.0 0.00 0.00 0.00 85 1011.8
20260510074516 70 140 0.0 3.0 0.00 0.00 0.00 85 1012.3
20260510074007 70 157 0.0 3.0 0.00 0.00 0.00 85 1012.3
20260510074005 70 173 1.0 4.0 0.00 0.00 0.00 85 1011.7
20260510073506 71 188 1.0 4.0 0.00 0.00 0.00 85 1011.8
20260510073504 71 165 0.0 2.0 0.00 0.00 0.00 85 1012.3
20260510073033 71 158 0.0 2.0 0.00 0.00 0.00 84 1012.3
20260510073022 71 153 2.0 7.0 0.00 0.00 0.00 84 1011.7
20260510072503 71 161 1.0 7.0 0.00 0.00 0.00 84 1011.7
20260510072005 71 164 3.0 7.0 0.00 0.00 0.00 84 1011.7
20260510072002 71 169 0.0 3.0 0.00 0.00 0.00 84 1012.3
20260510071512 71 211 0.0 2.0 0.00 0.00 0.00 83 1012.2
20260510071503 71 162 2.0 6.0 0.00 0.00 0.00 83 1011.6
20260510071006 72 156 0.0 4.0 0.00 0.00 0.00 83 1012.3
20260510071002 72 97 1.0 6.0 0.00 0.00 0.00 83 1011.6
20260510070503 72 145 1.0 7.0 0.00 0.00 0.00 83 1011.5
20260510070015 72 178 3.0 8.0 0.00 0.00 0.00 83 1011.6
20260510065504 72 142 3.0 8.0 0.00 0.00 0.00 83 1011.6
20260510065006 72 182 1.0 8.0 0.00 0.00 0.00 84 1011.6
20260510065003 72 149 0.0 3.0 0.00 0.00 0.00 84 1012.2
20260510064539 71 144 0.0 4.0 0.00 0.00 0.00 84 1012.2
20260510064526 71 144 2.0 8.0 0.00 0.00 0.00 84 1011.5
20260510064004 71 162 1.0 4.0 0.00 0.00 0.00 85 1012.1
20260510063509 70 138 1.0 8.0 0.00 0.00 0.00 85 1011.4
20260510063507 70 149 0.0 2.0 0.00 0.00 0.00 85 1012.0
20260510063016 70 242 0.0 2.0 0.00 0.00 0.00 85 1012.1
20260510063008 70 140 2.0 8.0 0.00 0.00 0.00 85 1011.4
20260510062507 70 144 1.0 6.0 0.00 0.00 0.00 84 1011.6
20260510062009 70 69 0.0 4.0 0.00 0.00 0.00 84 1011.8
20260510062007 70 239 0.0 3.0 0.00 0.00 0.00 84 1012.3
20260510061514 70 68 1.0 4.0 0.00 0.00 0.00 84 1011.9
20260510061506 70 99 0.0 2.0 0.00 0.00 0.00 84 1012.4
20260510061004 70 148 1.0 3.0 0.00 0.00 0.00 84 1012.3
20260510060503 70 204 0.0 3.0 0.00 0.00 0.00 84 1012.3
20260510060024 69 140 0.0 2.0 0.00 0.00 0.00 84 1012.5
20260510060010 69 86 1.0 3.0 0.00 0.00 0.00 84 1011.9
20260510055504 69 170 0.0 2.0 0.00 0.00 0.00 84 1012.3
20260510055004 69 115 0.0 2.0 0.00 0.00 0.00 84 1012.2
20260510054512 69 163 0.0 2.0 0.00 0.00 0.00 84 1012.2
20260510054006 69 163 0.0 2.0 0.00 0.00 0.00 83 1012.2
20260510054003 69 128 0.0 2.0 0.00 0.00 0.00 83 1011.6
20260510053508 69 134 0.0 2.0 0.00 0.00 0.00 83 1012.3
20260510053503 69 86 0.0 2.0 0.00 0.00 0.00 83 1011.6
20260510053023 69 86 0.0 2.0 0.00 0.00 0.00 83 1011.6
20260510053018 69 117 0.0 2.0 0.00 0.00 0.00 83 1012.1
20260510052508 69 86 0.0 2.0 0.00 0.00 0.00 83 1011.6
20260510052506 69 117 0.0 2.0 0.00 0.00 0.00 83 1012.1
20260510052006 69 86 0.0 2.0 0.00 0.00 0.00 82 1011.5
20260510051516 69 101 0.0 2.0 0.00 0.00 0.00 82 1012.1
20260510051007 69 101 0.0 2.0 0.00 0.00 0.00 82 1012.0
20260510050507 69 85 0.0 2.0 0.00 0.00 0.00 82 1011.4
20260510050014 69 185 0.0 2.0 0.00 0.00 0.00 83 1012.0
20260510050012 69 85 0.0 2.0 0.00 0.00 0.00 83 1011.4
20260510045506 69 182 0.0 2.0 0.00 0.00 0.00 83 1012.0
20260510045504 69 42 0.0 2.0 0.00 0.00 0.00 83 1011.4
20260510045010 68 108 0.0 2.0 0.00 0.00 0.00 85 1012.0
20260510045007 68 71 0.0 2.0 0.00 0.00 0.00 85 1011.5
20260510044515 68 70 1.0 2.0 0.00 0.00 0.00 84 1011.3
20260510044510 68 155 0.0 2.0 0.00 0.00 0.00 84 1012.0
20260510044006 68 153 0.0 2.0 0.00 0.00 0.00 85 1012.0
20260510044004 68 70 1.0 2.0 0.00 0.00 0.00 85 1011.3
20260510043504 68 83 0.0 2.0 0.00 0.00 0.00 86 1011.3
20260510043018 68 184 0.0 0.0 0.00 0.00 0.00 86 1012.0
20260510042506 68 184 0.0 0.0 0.00 0.00 0.00 86 1012.0
20260510042504 68 83 0.0 2.0 0.00 0.00 0.00 86 1011.4
20260510042013 68 83 0.0 2.0 0.00 0.00 0.00 86 1011.3
20260510042009 68 184 0.0 0.0 0.00 0.00 0.00 86 1012.0
20260510041521 68 184 0.0 0.0 0.00 0.00 0.00 86 1012.0
20260510041005 68 184 0.0 0.0 0.00 0.00 0.00 86 1011.9
20260510040507 68 83 0.0 2.0 0.00 0.00 0.00 86 1011.3
20260510040504 68 184 0.0 0.0 0.00 0.00 0.00 86 1011.9
20260510040024 69 184 0.0 0.0 0.00 0.00 0.00 85 1011.8
20260510035507 69 83 0.0 2.0 0.00 0.00 0.00 86 1011.1
20260510035004 69 83 0.0 2.0 0.00 0.00 0.00 86 1011.0
20260510034514 69 83 0.0 2.0 0.00 0.00 0.00 86 1011.0
20260510034510 69 196 0.0 2.0 0.00 0.00 0.00 86 1011.7
20260510034005 69 196 0.0 0.0 0.00 0.00 0.00 86 1011.7
20260510033508 69 83 0.0 2.0 0.00 0.00 0.00 85 1011.0
20260510033502 69 110 0.0 0.0 0.00 0.00 0.00 85 1011.6
20260510033020 70 83 0.0 2.0 0.00 0.00 0.00 85 1010.9
20260510033014 70 110 0.0 0.0 0.00 0.00 0.00 85 1011.6
20260510032506 70 83 0.0 2.0 0.00 0.00 0.00 85 1010.8
20260510032009 70 83 0.0 2.0 0.00 0.00 0.00 84 1010.9
20260510032007 70 110 0.0 1.0 0.00 0.00 0.00 84 1011.5
20260510031516 71 83 0.0 2.0 0.00 0.00 0.00 83 1010.9
20260510031514 71 105 0.0 2.0 0.00 0.00 0.00 83 1011.5
20260510031007 71 105 0.0 2.0 0.00 0.00 0.00 83 1011.5
20260510030513 71 83 0.0 2.0 0.00 0.00 0.00 84 1010.7
20260510030508 71 105 0.0 1.0 0.00 0.00 0.00 84 1011.4
20260510030011 71 105 0.0 2.0 0.00 0.00 0.00 83 1011.4
20260510030005 71 83 0.0 2.0 0.00 0.00 0.00 83 1010.7
20260510025509 71 105 0.0 2.0 0.00 0.00 0.00 83 1011.3
20260510025503 71 83 0.0 2.0 0.00 0.00 0.00 83 1010.6
20260510025007 71 103 0.0 2.0 0.00 0.00 0.00 84 1011.3
20260510024528 72 103 0.0 2.0 0.00 0.00 0.00 83 1011.1
20260510024505 72 84 0.0 2.0 0.00 0.00 0.00 83 1010.6
20260510024005 72 90 0.0 2.0 0.00 0.00 0.00 82 1010.4
20260510024003 72 88 0.0 2.0 0.00 0.00 0.00 82 1011.0
20260510023503 72 124 0.0 2.0 0.00 0.00 0.00 82 1010.9
20260510023011 73 134 0.0 2.0 0.00 0.00 0.00 83 1010.9
20260510023007 73 90 0.0 2.0 0.00 0.00 0.00 83 1010.3
20260510022504 72 90 0.0 2.0 0.00 0.00 0.00 83 1010.2
20260510022007 73 134 0.0 0.0 0.00 0.00 0.00 83 1010.7
20260510021523 73 115 0.0 2.0 0.00 0.00 0.00 82 1010.2
20260510021515 73 134 0.0 0.0 0.00 0.00 0.00 82 1010.7
20260510021008 73 134 0.0 0.0 0.00 0.00 0.00 82 1010.6
20260510021004 73 115 0.0 2.0 0.00 0.00 0.00 82 1010.0
20260510020507 73 115 0.0 0.0 0.00 0.00 0.00 82 1009.9
20260510020023 74 134 0.0 0.0 0.00 0.00 0.00 81 1010.3
20260510020020 74 115 0.0 0.0 0.00 0.00 0.00 81 1009.8
20260510015506 74 134 0.0 0.0 0.00 0.00 0.00 80 1010.3
20260510015503 74 115 0.0 0.0 0.00 0.00 0.00 80 1009.8
20260510015003 75 115 0.0 2.0 0.00 0.00 0.00 79 1009.7
20260510014517 75 134 0.0 2.0 0.00 0.00 0.00 78 1010.2
20260510014504 75 115 0.0 2.0 0.00 0.00 0.00 78 1009.6
20260510014009 76 134 0.0 2.0 0.00 0.00 0.00 77 1010.1
20260510014003 76 115 0.0 2.0 0.00 0.00 0.00 77 1009.6
20260510013511 76 134 0.0 2.0 0.00 0.00 0.00 76 1010.0
20260510013504 76 153 0.0 2.0 0.00 0.00 0.00 76 1009.5
20260510013019 77 142 0.0 2.0 0.00 0.00 0.00 75 1010.0
20260510013009 77 98 0.0 5.0 0.00 0.00 0.00 75 1009.4
20260510012504 77 94 0.0 5.0 0.00 0.00 0.00 76 1009.4
20260510012502 77 106 0.0 2.0 0.00 0.00 0.00 76 1010.1
20260510012007 77 149 0.0 2.0 0.00 0.00 0.00 75 1010.0
20260510012003 77 115 0.0 2.0 0.00 0.00 0.00 75 1009.4
20260510011517 78 141 0.0 2.0 0.00 0.00 0.00 76 1010.0
20260510011513 78 117 1.0 2.0 0.00 0.00 0.00 76 1009.4
20260510011007 78 164 0.0 2.0 0.00 0.00 0.00 74 1010.0
20260510010507 79 117 0.0 2.0 0.00 0.00 0.00 73 1009.3
20260510010502 79 184 0.0 2.0 0.00 0.00 0.00 73 1010.1
20260510010008 80 117 0.0 2.0 0.00 0.00 0.00 72 1009.2
20260510005507 80 88 0.0 4.0 0.00 0.00 0.00 73 1009.2
20260510005503 80 168 0.0 2.0 0.00 0.00 0.00 73 1010.0
20260510005015 81 88 0.0 4.0 0.00 0.00 0.00 71 1009.2
20260510005006 81 168 0.0 2.0 0.00 0.00 0.00 71 1009.9
20260510004507 81 194 0.0 2.0 0.00 0.00 0.00 72 1009.9
20260510004006 82 129 0.0 2.0 0.00 0.00 0.00 72 1010.0
20260510003507 82 90 1.0 5.0 0.00 0.00 0.00 71 1009.1
20260510003505 82 189 0.0 5.0 0.00 0.00 0.00 71 1009.9
20260510003008 83 148 1.0 5.0 0.00 0.00 0.00 70 1009.8
20260510002503 83 138 1.0 5.0 0.00 0.00 0.00 69 1009.8
20260510002006 84 91 1.0 3.0 0.00 0.00 0.00 66 1009.0
20260510001512 84 64 1.0 6.0 0.00 0.00 0.00 66 1009.0
20260510001004 84 79 2.0 7.0 0.00 0.00 0.00 66 1009.0
20260510000504 85 161 1.0 5.0 0.00 0.00 0.00 66 1009.7
20260510000019 85 130 1.0 10.0 0.00 0.00 0.00 65 1008.9
20260510000011 85 182 0.0 5.0 0.00 0.00 0.00 65 1009.6
20260509235506 85 82 2.0 10.0 0.00 0.00 0.00 64 1008.9
20260509235003 85 159 2.0 8.0 0.00 0.00 0.00 61 1008.9
20260509234529 86 144 1.0 4.0 0.00 0.00 0.00 58 1008.8
20260509234518 86 211 1.0 2.0 0.00 0.00 0.00 58 1009.5
20260509234010 85 142 1.0 4.0 0.00 0.00 0.00 58 1008.8
20260509234006 85 191 0.0 2.0 0.00 0.00 0.00 58 1009.5
20260509233506 86 142 1.0 3.0 0.00 0.00 0.00 60 1008.8
20260509233503 86 130 0.0 2.0 0.00 0.00 0.00 60 1009.4
20260509233014 86 150 1.0 3.0 0.00 0.00 0.00 62 1008.8
20260509233008 86 158 0.0 2.0 0.00 0.00 0.00 62 1009.4
20260509232504 86 155 2.0 3.0 0.00 0.00 0.00 62 1008.6
20260509232009 86 84 0.0 5.0 0.00 0.00 0.00 59 1008.6
20260509232002 86 190 0.0 2.0 0.00 0.00 0.00 59 1009.3
20260509231515 87 88 1.0 5.0 0.00 0.00 0.00 61 1008.6
20260509231508 87 199 0.0 2.0 0.00 0.00 0.00 61 1009.3
20260509231004 87 150 2.0 5.0 0.00 0.00 0.00 59 1008.6
20260509230506 87 149 2.0 4.0 0.00 0.00 0.00 59 1008.5
20260509230503 87 128 0.0 2.0 0.00 0.00 0.00 59 1009.2
20260509230015 87 148 2.0 3.0 0.00 0.00 0.00 59 1008.5
20260509230008 87 161 0.0 2.0 0.00 0.00 0.00 59 1009.2
20260509225505 87 124 0.0 2.0 0.00 0.00 0.00 59 1009.2
20260509225008 87 138 1.0 3.0 0.00 0.00 0.00 60 1008.4
20260509225004 87 261 0.0 3.0 0.00 0.00 0.00 60 1009.1
20260509224530 88 86 0.0 3.0 0.00 0.00 0.00 59 1008.5
20260509224515 88 41 0.0 3.0 0.00 0.00 0.00 59 1009.2
20260509224005 88 71 0.0 3.0 0.00 0.00 0.00 57 1008.5
20260509223511 87 159 1.0 3.0 0.00 0.00 0.00 60 1008.4
20260509223505 87 115 0.0 2.0 0.00 0.00 0.00 60 1009.1
20260509223024 87 265 1.0 3.0 0.00 0.00 0.00 60 1008.3
20260509223013 87 215 1.0 2.0 0.00 0.00 0.00 60 1009.1
20260509222509 87 224 0.0 2.0 0.00 0.00 0.00 60 1008.3
20260509222506 87 278 1.0 3.0 0.00 0.00 0.00 60 1009.1
20260509222005 87 80 0.0 6.0 0.00 0.00 0.00 62 1008.3
20260509221508 87 139 2.0 6.0 0.00 0.00 0.00 60 1008.9
20260509221002 87 28 0.0 2.0 0.00 0.00 0.00 62 1009.0
20260509220505 86 115 1.0 3.0 0.00 0.00 0.00 65 1008.3
20260509220017 86 83 1.0 3.0 0.00 0.00 0.00 64 1009.1
20260509220011 86 332 1.0 3.0 0.00 0.00 0.00 64 1008.5
20260509215507 85 324 1.0 3.0 0.00 0.00 0.00 66 1008.5
20260509215503 85 63 1.0 3.0 0.00 0.00 0.00 66 1009.2
20260509215006 85 260 0.0 4.0 0.00 0.00 0.00 68 1008.6
20260509215003 85 5 1.0 2.0 0.00 0.00 0.00 68 1009.2
20260509214515 84 238 2.0 4.0 0.00 0.00 0.00 71 1008.7
20260509214005 82 265 1.0 4.0 0.00 0.00 0.00 74 1008.7
20260509213509 80 266 1.0 3.0 0.00 0.00 0.00 79 1008.8
20260509213506 80 186 0.0 2.0 0.00 0.00 0.00 79 1009.5
20260509213010 78 275 0.0 2.0 0.00 0.00 0.00 80 1008.9
20260509213008 78 5 0.0 2.0 0.00 0.00 0.00 80 1009.5
20260509212509 78 275 0.0 2.0 0.00 0.00 0.00 78 1009.0
20260509212504 78 5 0.0 2.0 0.00 0.00 0.00 78 1009.7
20260509212011 79 5 0.0 2.0 0.00 0.00 0.00 78 1009.8
20260509211526 78 285 0.0 2.0 0.00 0.00 0.00 77 1009.1
20260509211507 78 352 0.0 2.0 0.00 0.00 0.00 77 1009.7
20260509211006 78 285 0.0 2.0 0.00 0.00 0.00 76 1009.3
20260509211004 78 23 0.0 3.0 0.00 0.00 0.00 76 1009.8
20260509210509 79 285 0.0 2.0 0.00 0.00 0.00 75 1009.4
20260509210503 79 146 0.0 3.0 0.00 0.00 0.00 75 1009.9
20260509210013 79 288 0.0 2.0 0.00 0.00 0.00 76 1009.3
20260509210011 79 13 0.0 2.0 0.00 0.00 0.00 76 1009.8
20260509205505 79 348 1.0 3.0 0.00 0.00 0.00 74 1009.2
20260509205007 80 28 0.0 9.0 0.00 0.00 0.00 74 1009.4
20260509205005 80 360 0.0 3.0 0.00 0.00 0.00 74 1009.9
20260509204517 81 254 2.0 9.0 0.00 0.00 0.00 72 1009.3
20260509204514 81 20 1.0 3.0 0.00 0.00 0.00 72 1009.9
20260509204006 83 282 1.0 6.0 0.00 0.00 0.00 74 1009.4
20260509204003 83 360 0.0 2.0 0.00 0.00 0.00 74 1010.0
20260509203506 83 294 0.0 2.0 0.00 0.00 0.00 73 1009.6
20260509203504 83 326 0.0 2.0 0.00 0.00 0.00 73 1010.1
20260509203021 83 291 0.0 2.0 0.00 0.00 0.00 73 1009.5
20260509203014 83 326 0.0 2.0 0.00 0.00 0.00 73 1010.1
20260509202506 83 291 0.0 2.0 0.00 0.00 0.00 73 1009.4
20260509202016 84 291 0.0 2.0 0.00 0.00 0.00 1009.7
20260509202006 84 53 0.0 2.0 0.00 0.00 0.00 1010.2
20260509201517 83 285 0.0 2.0 0.00 0.00 0.00 70 1009.7
20260509201515 83 53 0.0 2.0 0.00 0.00 0.00 70 1010.3
20260509201008 84 267 0.0 2.0 0.00 0.00 0.00 70 1009.9
20260509200512 84 267 0.0 3.0 0.00 0.00 0.00 67 1010.0
20260509200510 84 16 1.0 2.0 0.00 0.00 0.00 67 1010.6
20260509200018 85 265 1.0 4.0 0.00 0.00 0.00 66 1009.9
20260509200008 85 252 0.0 2.0 0.00 0.00 0.00 66 1010.6
20260509195513 85 266 2.0 4.0 0.00 0.00 0.00 64 1010.1
20260509195503 85 350 0.0 2.0 0.00 0.00 0.00 64 1010.7
20260509195004 86 263 0.0 5.0 0.00 0.00 0.00 62 1010.1
20260509195002 86 262 1.0 3.0 0.00 0.00 0.00 62 1010.7
20260509194519 88 278 1.0 6.0 0.00 0.00 0.00 62 1010.0
20260509194511 88 352 0.0 3.0 0.00 0.00 0.00 62 1010.6
20260509194007 89 244 2.0 6.0 0.00 0.00 0.00 62 1009.9
20260509194005 89 273 1.0 3.0 0.00 0.00 0.00 62 1010.5
20260509193509 88 55 1.0 3.0 0.00 0.00 0.00 58 1010.6
20260509193506 88 207 1.0 5.0 0.00 0.00 0.00 58 1010.0
20260509193024 87 229 1.0 3.0 0.00 0.00 0.00 62 1009.8
20260509193017 87 281 1.0 3.0 0.00 0.00 0.00 62 1010.5
20260509192505 87 190 1.0 5.0 0.00 0.00 0.00 64 1009.9
20260509192503 87 78 1.0 3.0 0.00 0.00 0.00 64 1010.5
20260509192008 87 208 2.0 7.0 0.00 0.00 0.00 64 1010.1
20260509191523 88 222 4.0 7.0 0.00 0.00 0.00 67 1010.0
20260509191517 88 272 1.0 5.0 0.00 0.00 0.00 67 1010.6
20260509191013 86 213 3.0 6.0 0.00 0.00 0.00 70 1010.0
20260509191006 86 230 1.0 3.0 0.00 0.00 0.00 70 1010.7
20260509190511 86 91 1.0 3.0 0.00 0.00 0.00 67 1010.9
20260509190507 86 10 1.0 4.0 0.00 0.00 0.00 67 1010.2
20260509190029 85 238 2.0 4.0 0.00 0.00 0.00 68 1010.3
20260509190019 85 53 1.0 3.0 0.00 0.00 0.00 68 1011.0
20260509185509 85 273 0.0 4.0 0.00 0.00 0.00 67 1010.4
20260509185505 85 24 1.0 3.0 0.00 0.00 0.00 67 1011.1
20260509185004 84 267 1.0 4.0 0.00 0.00 0.00 70 1010.6
20260509184541 85 255 1.0 7.0 0.00 0.00 0.00 67 1010.8
20260509184521 85 46 0.0 3.0 0.00 0.00 0.00 67 1011.4
20260509184006 86 199 1.0 3.0 0.00 0.00 0.00 68 1011.5
20260509183507 84 250 1.0 3.0 0.00 0.00 0.00 70 1010.9
20260509183504 84 15 0.0 2.0 0.00 0.00 0.00 70 1011.5
20260509183028 84 333 0.0 2.0 0.00 0.00 0.00 73 1011.6
20260509183021 84 246 1.0 2.0 0.00 0.00 0.00 73 1011.0
20260509182507 83 298 0.0 3.0 0.00 0.00 0.00 72 1011.1
20260509182008 84 281 0.0 3.0 0.00 0.00 0.00 72 1011.1
20260509181517 85 292 2.0 5.0 0.00 0.00 0.00 68 1011.2
20260509181007 86 190 3.0 5.0 0.00 0.00 0.00 67 1011.2
20260509180514 86 230 3.0 4.0 0.00 0.00 0.00 69 1011.3
20260509180507 86 200 1.0 3.0 0.00 0.00 0.00 69 1011.8
20260509180016 84 348 1.0 3.0 0.00 0.00 0.00 73 1011.8
20260509180008 84 156 2.0 5.0 0.00 0.00 0.00 73 1011.3
20260509175512 83 214 2.0 4.0 0.00 0.00 0.00 71 1011.9
20260509175503 83 234 2.0 5.0 0.00 0.00 0.00 71 1011.4
20260509175007 84 204 2.0 4.0 0.00 0.00 0.00 72 1011.9
20260509175003 84 209 3.0 5.0 0.00 0.00 0.00 72 1011.5
20260509174511 82 232 2.0 6.0 0.00 0.00 0.00 75 1011.5
20260509174509 82 217 1.0 4.0 0.00 0.00 0.00 75 1012.0
20260509174003 84 275 3.0 6.0 0.00 0.00 0.00 71 1011.6
20260509173511 86 223 1.0 3.0 0.00 0.00 0.00 72 1012.1
20260509173502 86 155 1.0 5.0 0.00 0.00 0.00 72 1011.7
20260509173021 84 195 0.0 2.0 0.00 0.00 0.00 74 1012.2
20260509173008 84 248 2.0 5.0 0.00 0.00 0.00 74 1011.6
20260509172510 84 271 2.0 4.0 0.00 0.00 0.00 80 1011.8
20260509172504 84 294 1.0 2.0 0.00 0.00 0.00 80 1012.3
20260509172007 81 234 0.0 2.0 0.00 0.00 0.00 79 1012.3
20260509172004 81 202 0.0 5.0 0.00 0.00 0.00 79 1011.8
20260509171524 81 265 0.0 2.0 0.00 0.00 0.00 77 1012.2
20260509171506 81 215 3.0 5.0 0.00 0.00 0.00 77 1011.8
20260509171008 82 223 1.0 2.0 0.00 0.00 0.00 75 1012.2
20260509171002 82 190 1.0 5.0 0.00 0.00 0.00 75 1011.7
20260509170507 81 189 2.0 7.0 0.00 0.00 0.00 76 1011.7
20260509170504 81 158 0.0 3.0 0.00 0.00 0.00 76 1012.1
20260509170018 81 269 1.0 3.0 0.00 0.00 0.00 76 1012.2
20260509170004 81 229 2.0 7.0 0.00 0.00 0.00 76 1011.8
20260509165507 82 227 2.0 4.0 0.00 0.00 0.00 75 1012.1
20260509165502 82 211 3.0 6.0 0.00 0.00 0.00 75 1011.6
20260509165006 83 207 0.0 4.0 0.00 0.00 0.00 75 1012.1
20260509165003 83 213 1.0 8.0 0.00 0.00 0.00 75 1011.6
20260509164518 83 216 1.0 4.0 0.00 0.00 0.00 76 1012.1
20260509164509 83 210 5.0 8.0 0.00 0.00 0.00 76 1011.6
20260509164009 82 204 1.0 5.0 0.00 0.00 0.00 75 1012.1
20260509164006 82 180 2.0 10.0 0.00 0.00 0.00 75 1011.5
20260509163504 82 265 5.0 11.0 0.00 0.00 0.00 78 1011.6
20260509163023 83 235 6.0 12.0 0.00 0.00 0.00 77 1011.5
20260509163019 83 231 1.0 6.0 0.00 0.00 0.00 77 1012.0
20260509162507 83 165 2.0 6.0 0.00 0.00 0.00 78 1011.8
20260509162505 83 186 7.0 15.0 0.00 0.00 0.00 78 1011.3
20260509162006 83 178 1.0 6.0 0.00 0.00 0.00 79 1011.8
20260509162003 83 182 9.0 15.0 0.00 0.00 0.00 79 1011.3
20260509161518 82 227 2.0 6.0 0.00 0.00 0.00 79 1011.8
20260509161512 82 201 6.0 12.0 0.00 0.00 0.00 79 1011.3
20260509161012 82 165 2.0 6.0 0.00 0.00 0.00 77 1011.8
20260509161010 82 215 8.0 13.0 0.00 0.00 0.00 77 1011.2
20260509160508 82 224 2.0 5.0 0.00 0.00 0.00 80 1011.8
20260509160503 82 197 8.0 13.0 0.00 0.00 0.00 80 1011.2
20260509160022 81 152 1.0 6.0 0.00 0.00 0.00 79 1011.9
20260509160005 81 181 6.0 11.0 0.00 0.00 0.00 79 1011.2
20260509155506 81 230 2.0 6.0 0.00 0.00 0.00 79 1012.1
20260509155502 81 187 8.0 10.0 0.00 0.00 0.00 79 1011.4
20260509155009 81 213 2.0 6.0 0.00 0.00 0.00 81 1012.1
20260509155004 81 207 7.0 11.0 0.00 0.00 0.00 81 1011.4
20260509154529 81 221 1.0 6.0 0.00 0.00 0.00 80 1012.0
20260509154513 81 186 7.0 11.0 0.00 0.00 0.00 80 1011.3
20260509154006 81 213 4.0 6.0 0.00 0.00 0.00 80 1012.1
20260509154003 81 208 7.0 11.0 0.00 0.00 0.00 80 1011.4